Starlink 3176

operational
NORAD ID: 51106 Int'l Des: 2022-005 Owner: SPXS Country: US Constellation: starlink
LEOCIRCULAR

Über Starlink 3176

Beschreibung wird geladen...

Live-Position

3D-Globus wird geladen...

Nächste Überflüge

Höhenverlauf

Altitude vs Time

uPlot chart will show altitude changes over time

Zweizeiliger Elementsatz

1 51106U 22005C 25353.54120105 .00000609 00000-0 56324-4 0 9997
2 51106 53.2200 288.9242 0001451 84.5032 275.6126 15.08838853216776
Epoch: 19. Dez. 2025 • Age: 17 hours

Aktueller Status

Höhe 559.3 km
Geschwindigkeit 7.58 km/s
Subsatellitenpunkt -53.19°S, 21.68°E
Startdatum 19. Jan. 2022
Alter 3.9 years
Typ internet

Technische Details

Klassifizierung Payload
Masse 297.00 kg
Trockenmasse 275.00 kg
Gesamtmasse 297.00 kg
Länge 0.20 m
Durchmesser 2.80 m
Spannweite 9.00 m
Form Box + pan
Hersteller SPXS
Bus-Typ Starlink
Phasenstatus In Orbit
Besitzer/Staat SPXS/US

Große Konstellationen

Loading constellations...